Regional Weather Roundup
Issued by NWS State College, PA

Home | Current Version | Previous Version | Text Only | Print | Product List | Glossary On
Versions: 1 2 3 4 5 6 7 8 9 10 11 12 13 14 15 16 17 18 19 20 21 22 23 24 25 26 27 28 29 30 31 32 33 34 35 36 37 38 39 40 41 42 43 44 45 46 47 48 49 50
000
ASUS41 KCTP 280303
RWRCTP

REGIONAL WEATHER ROUNDUP
NATIONAL WEATHER SERVICE STATE COLLEGE PA
1100 PM EDT MON JUL 27 2015

Note: "fair" indicates few or no clouds below 12,000 feet with no
significant weather and/or obstructions to visibility.

* = STATION THAT DOES NOT REPORT PRECIPITATION /E.G. RAIN...SNOW...ETC/
    THUNDER OR FOG.

PAZ002>004-007>009-013>016-020>023-029>032-280400-
WESTERN PENNSYLVANIA

CITY           SKY/WX    TMP DP  RH WIND       PRES   REMARKS
ERIE           CLEAR     71  60  68 CALM      30.03R
MEADVILLE      LGT RAIN  72  60  66 NE3       30.07R
FRANKLIN*      CLEAR     70  59  68 N5        30.08R
NEW CASTLE     FAIR      73  67  81 CALM      30.05R
BEAVER COUNTY  NOT AVBL
BUTLER*        PTCLDY    70  64  83 CALM      30.05S
PITTSBURGH INT PTCLDY    77  63  61 CALM      30.02R
PITTSBURGH     CLEAR     79  61  53 NE3       30.02R
INDIANA*       CLOUDY    75  70  83 E3        30.08R
LATROBE        NOT AVBL
WASHINGTON CO* NOT AVBL
$$

PAZ004>006-010>012-017>019-024>028-033>037-041-042-045-046-049>053-280400-
CENTRAL PENNSYLVANIA

CITY           SKY/WX    TMP DP  RH WIND       PRES   REMARKS
BRADFORD       CLEAR     65  60  84 CALM      30.10R
DUBOIS         CLEAR     72  63  73 E3        30.07R
CLEARFIELD     CLEAR     68  65  90 N6        30.07R
JOHNSTOWN      MOCLDY    71  66  84 CALM      30.10R
ALTOONA        PTCLDY    71  68  90 CALM      30.07R
STATE COLLEGE  CLEAR     73  69  88 NW3       30.06R
WILLIAMSPORT   CLEAR     71  67  87 CALM      30.01R
SELINSGROVE    CLEAR     68  67  96 CALM      30.03R FOG
FT INDIANTOWN  MOCLDY    72  70  95 CALM      30.03R
CAPITAL CITY   MOCLDY    78  70  76 SE5       30.02R
HARRISBURG     MOCLDY    78  72  81 CALM      30.01R
YORK           CLEAR     73  70  90 CALM      30.03R FOG
$$

PAZ038>040-043-044-047-048-054-055-060>062-067>071-280400-
EASTERN PENNSYLVANIA

CITY           SKY/WX    TMP DP  RH WIND       PRES   REMARKS
SCRANTON       CLEAR     71  66  84 E5        30.04S
MOUNT POCONO   CLEAR     65  62  90 NW3       30.09R FOG
ALLENTOWN      PTCLDY    78  70  76 S6        30.02R
QUAKERTOWN*    CLEAR     75  72  88 SW3       30.04R
READING        CLEAR     76  70  82 S5        30.01R
LANCASTER      CLEAR     73  70  90 CALM      30.03R FOG
COATESVILLE    MOCLDY    72  72 100 CALM      30.05R FOG
POTTSTOWN      PTCLDY    75  72  90 S5        30.04S
BLUE BELL      CLEAR     77  72  83 S3        30.02S
DOYLESTOWN     CLEAR     73  70  90 CALM      30.02R
WILLOW GROVE   NOT AVBL
NORTH PHILA    CLEAR     77  69  76 S3        30.03R
PHILADELPHIA   MOCLDY    78  70  76 CALM      30.02S
$$



USA.gov is the U.S. government's official web portal to all federal, state and local government web resources and services.